Torna al catalogo

DMSP 5D-2 F13 DEB

AttivoSSO
NORAD 40470·DEBRIS·🇺🇸 United States

Lanciato Mar 24, 1995 da Vandenberg Space Force Base

Loading…

Prossimi Passaggi (prossime 24 ore)

TLE

AggiornatoSource: Space-Track

Epoca: Sep 13, 2026, 11:20 UTC

1 40470U 95015BN  26256.47243556  .00002013  00000-0  89285-3 0  9993
2 40470  98.9997 259.0049 0042679 190.2747 169.7563 14.23755642592478

Traccia DMSP 5D-2 F13 DEB in tempo reale con AllMySat

Download on the App Store